Location: Eppenbrunn
(49.1158°N, 7.5601°E)
Time: 17:42:19
(UTC+00:00)

Envisat - Pass Details

Date: 29 July 2021
Orbit: 764 x 766 km, 98.2° (Epoch: 20 September)

Event Time Altitude Azimuth Distance (km) Brightness Sun altitude
Rises 03:14:48 0° 32° (NNE) 3,245 7.9 -6.7°
Reaches altitude 10° 03:18:54 10° 64° (ENE) 2,311 7.1 -6.2°
Maximum altitude 03:20:38 12° 85° (E) 2,195 6.4 -5.9°
Drops below altitude 10° 03:22:22 10° 105° (ESE) 2,304 6.1 -5.7°
Sets 03:26:25 0° 137° (SE) 3,222 6.3 -5.2°
